Regional Weather Roundup
Issued by NWS Mobile, AL

Home | Current Version | Previous Version | Text Only | Print | Product List | Glossary On
Versions: 1 2 3 4 5 6 7 8 9 10 11 12 13 14 15 16 17 18 19 20 21 22 23 24 25 26 27 28 29 30 31 32 33 34 35 36 37 38 39 40 41 42 43 44 45 46 47 48 49 50
000
ASUS44 KMOB 130312
RWRMOB
REGIONAL WEATHER ROUNDUP
NATIONAL WEATHER SERVICE MOBILE AL
900 PM CST FRI FEB 12 2016

NOTE: "FAIR" INDICATES FEW OR NO CLOUDS BELOW 12,000 FEET WITH NO
      SIGNIFICANT WEATHER AND/OR OBSTRUCTIONS TO VISIBILITY.

  * THESE STATIONS ARE PART OF THE UNIVERSITY OF SOUTH ALABAMA
    MESONET AND ARE NOT UNDER NWS OR FAA QUALITY CONTROL.

ALZ061>064-130400-
COASTAL ALABAMA

CITY           SKY/WX    TMP DP  RH WIND       PRES   REMARKS
MOBILE REG APT PTCLDY    60  45  57 NW7       30.24R
BROOKLEY FIELD CLEAR     60  47  61 NW10      30.25R
USA CAMPUS*    NOT AVBL
DOG RIVER*     NOT AVBL


CITY           SKY/WX    TMP DP  RH WIND       PRES   REMARKS
MOUNT VERNON*  NOT AVBL
SARALAND*      NOT AVBL
BAY MINETTE*   NOT AVBL
LOXLEY*        NOT AVBL
ROBERTSDALE*   NOT AVBL
FAIRHOPE*      NOT AVBL
ELBERTA*       NOT AVBL
FOLEY*         NOT AVBL
GRAND BAY*     NOT AVBL
DAUPHIN ISLND* NOT AVBL
BON SCOUR NWR* NOT AVBL
GULF SHORES    CLEAR     56  55  97 NW6       30.22R

$$

ALZ051>060-130400-
INTERIOR SOUTHWEST AND SOUTH CENTRAL ALABAMA

CITY           SKY/WX    TMP DP  RH WIND       PRES   REMARKS
GREENVILLE     CLEAR     57  33  40 N9        30.21R
EVERGREEN      CLEAR     51  42  71 N5        30.23R
CASTLEBERRY*   NOT AVBL
ATMORE*        NOT AVBL
DIXIE*         NOT AVBL
ANDALUSIA/OPP  CLEAR     58  41  53 N6        30.20R
ANDALUSIA*     NOT AVBL
FLORALA APT    CLEAR     56  46  69 NW3       30.21R
FLORALA*       NOT AVBL

$$

FLZ001>006-130400-
WESTERN FLORIDA PANHANDLE

CITY           SKY/WX    TMP DP  RH WIND       PRES   REMARKS
PENSACOLA      PTCLDY    61  55  81 W8        30.21R
NAS PENSACOLA  CLEAR     61  53  75 W5        30.21
MILTON         CLEAR     57  53  86 NW7       30.21R
WHTNG S FIELD  CLEAR     60  55  83 W3        30.21R


CITY           SKY/WX    TMP DP  RH WIND       PRES   REMARKS
WALNUT HILL*   NOT AVBL
JAY*           NOT AVBL
DUKE FIELD     CLEAR     60  55  83 W7        30.19R
CRESTVIEW      CLEAR     56  52  86 W3        30.21R
VALPARAISO     PTCLDY    59  55  87 W8        30.19R
DESTIN         PTCLDY    63  57  81 VRB3      30.19R

$$

MSZ076-079-130400-
INTERIOR SOUTHEAST MISSISSIPPI

CITY           SKY/WX    TMP DP  RH WIND       PRES   REMARKS
LEAKESVILLE*   NOT AVBL
AGRICOLA*      NOT AVBL

$$

MARINE OBSERVATIONS

STATION/POSITION TIME  TEMP    WIND        PRES    WAVE
                       AIR SEA DIR/SP/G            HT/PER
                 (UTC) (F)     (DEG/KT/KT) (MB)    (FT/S)
PASCAGOULA       0200   60                 1022.8R
PETIT BOIS ISLND 0200   73                 1023.6R
GRAND BAY        0100   63     290/  6     1023.0R
KATRINA CUT      0200   58     280/ 12       N/A
CEDAR POINT      0200   59     270/  8     1022.4R
E DAUPHIN ISLAND 0200   65     270/  9/ 13 1022.4R
MIDDLE BAY LIGHT 0200          290/  9     1022.4R
USCG MOBILE BAY  0200   66 56              1023.4R
STATE DOCKS      0200   65 53              1022.8R
MEAHER PARK      0200   62     330/  3     1022.7R
WEEKS BAY        0100   62                   N/A
FORT MORGAN      0200   63                 1022.2R
12 S ORANGE BCH  0250   65 65  260/ 14/ 16 1022.3R   2/ 4
PENSACOLA BAY    0200   65 54              1022.5R

$$

SELECTED LOCATIONS ACROSS THE REGION

CITY           SKY/WX    TMP DP  RH WIND       PRES   REMARKS
NEW ORLEANS    MOCLDY    67  53  61 NW7       30.26R
GULFPORT       CLEAR     63  48  58 N8        30.24R
PASCAGOULA AP  CLEAR     61  48  62 N7        30.24R
PASCAGOULA*    NOT AVBL
HATTIESBURG    CLEAR     59  37  44 N10       30.29R
LAUREL         CLEAR     55  34  44 N13       30.30R
MERIDIAN       CLEAR     53  32  44 NW15      30.31R
JACKSON        CLEAR     51  34  52 N10       30.33R
MONTGOMERY     CLEAR     56  33  42 NW13      30.22R
TROY           CLEAR     58  35  42 NW8       30.20R
KINSTON*       NOT AVBL
GENEVA*        NOT AVBL
ASHFORD*       NOT AVBL
DOTHAN         CLEAR     57  36  45 NW9       30.20R
PANAMA CITY    CLEAR     60  57  89 SW7       30.18R

$$




USA.gov is the U.S. government's official web portal to all federal, state and local government web resources and services.